User: anonymous   Login
Location: Kawakawa
(35.3830°S, 174.0670°E)
Time: 08:20:04
(UTC+13:00)
Language:

CENTAUR R/B - Orbit

View from above orbital plane
View from above orbital plane
View from above satellite
View from above satellite

Ground track
Ground track

The orbit data is extracted from the following two-line orbital elements,

1 26906U 01040B   20276.70416664 0.00000000  00000-0  00000-0 0    02
2 26906  63.4393 125.0927 0454080 339.4938  20.5062 13.44062205    01
Epoch (UTC): 02 October 2020 16:53:59
Eccentricity: 0.0454080
inclination: 63.4393°
perigee height: 755 km
apogee height: 1433 km
right ascension of ascending node: 125.0927°
argument of perigee: 339.4938°
revolutions per day: 13.44062205
mean anomaly at epoch: 20.5062°
orbit number at epoch: 0

The dashed part of the orbit path shows where the satellite is in the earth's shadow,  

DLR